Regional Weather Roundup
Issued by NWS

Home | Current Version | Previous Version | Text Only | Print | Product List | Glossary Off
Versions: 1 2 3 4 5 6 7 8 9 10 11 12 13 14 15 16 17 18 19 20 21 22 23 24 25 26 27 28 29 30 31 32 33 34 35 36 37 38 39 40 41 42 43 44 45 46 47 48 49 50

000
ASUS43 KDTX 032201
RWRMI
MICHIGAN HOURLY REGIONAL WEATHER ROUNDUP
NATIONAL WEATHER SERVICE DETROIT/PONTIAC MI
600 PM EDT SUN MAY 03 2015

NOTE: "FAIR" INDICATES FEW OR NO CLOUDS BELOW 12,000 FEET WITH NO
SIGNIFICANT WEATHER AND/OR OBSTRUCTION TO VISIBILITY.

MIZ047>049-052>055-059>063-066>070-074>076-081>083-032300-
SOUTHEAST LOWER MICHIGAN

CITY           SKY/WX    TMP DP  RH WIND       PRES   REMARKS
ADRIAN         MOSUNNY   77  44  30 W13       30.01S
ALMA           CLOUDY    77  43  29 SW13G18   29.95S
ANN ARBOR      MOSUNNY   78  45  30 W14       30.00S
BAD AXE        CLOUDY    76  39  25 SW12G22   29.96R
CARO           PTSUNNY   78  45  30 S5        29.95S
DETROIT CITY   MOSUNNY   76  43  30 SW16      29.99S
DETROIT        CLOUDY    81  44  27 SW15      30.00S
FLINT          PTSUNNY   78  42  27 W12       29.97S
GROSSE ILE     MOSUNNY   70  48  46 SE8       29.99S
HILLSDALE      PTSUNNY   77  43  30 SW9       30.01S
HOWELL         CLOUDY    76  41  28 SW9G16    29.98S

CITY           SKY/WX    TMP DP  RH WIND       PRES   REMARKS
JACKSON        PTSUNNY   77  45  32 SW15G22   29.99S
LAMBERTVILLE   PTSUNNY   77  41  27 SW12      30.01S
LANSING        CLOUDY    77  45  32 SW10      29.97S
LAPEER         PTSUNNY   76  38  24 SW12      29.98R
MASON          CLOUDY    76  43  30 SW6       29.98S
MONROE         MOSUNNY   79  45  29 SW15      29.99S
MT. CLEMENS    PTSUNNY   74  46  37 S13       29.97R
PONTIAC        CLOUDY    76  41  28 SW9       29.98S
PORT HOPE        N/A     77  39  25 SW8       29.93S
PORT HURON     MOSUNNY   75  45  33 S15G24    29.99S
TRI CITIES     PTSUNNY   79  43  27 SW16      29.94S
MIDLAND        CLOUDY    79  42  27 SW12      29.92S
TROY           CLOUDY    79  40  24 SW9G20    30.01S
SAGINAW HB     PTSUNNY   79  39  24 S15       29.94S
$$
MIZ043>046-050>051-056>058-064>065-071>073-077>080-032300-
SOUTHWEST LOWER MICHIGAN

CITY           SKY/WX    TMP DP  RH WIND       PRES   REMARKS
BATTLE CREEK   CLOUDY    76  45  33 SW14      29.98S
BENTON HARBOR  MOSUNNY   77  46  33 SW9       29.94S
BIG RAPIDS     CLOUDY    75  40  28 W18G26    29.93S
COLDWATER      PTSUNNY   76  42  29 SW9       29.99S
FREMONT        FAIR      76  38  25 SW20      29.93S
HOLLAND        MOSUNNY   78  46  32 SW16G23   29.95F
GRAND RAPIDS   CLOUDY    77  44  30 SW15      29.95F
IONIA          PTSUNNY   77  45  31 W15       29.95S
KALAMAZOO      PTSUNNY   78  46  32 S15       29.97S
LUDINGTON      CLOUDY    73  44  34 S14G21    29.91S
MARSHALL       CLOUDY    75  46  35 MISG      29.98R
MOUNT PLEASANT PTSUNNY   78  42  28 SW16G22   29.93S
MUSKEGON       MOSUNNY   75  42  30 S15       29.94S
SOUTH HAVEN    MOSUNNY   80  39  23 SW9G18    29.94S
$$
MIZ016>042-032300-
NORTHERN LOWER MICHIGAN

CITY           SKY/WX    TMP DP  RH WIND       PRES   REMARKS
ALPENA         MOSUNNY   80  43  26 SW10G18   29.88S
BEAVER ISLAND  SUNNY     68  40  35 SW16      29.86S
BELLAIRE       MOSUNNY   78  43  28 S10G16    29.86S
CADILLAC       PTSUNNY   74  46  35 SW21      29.92R
CHARLEVOIX     SUNNY     78  46  31 S14G21    29.88S
FRANKFORT      PTSUNNY   73  38  28 S14G23    29.88S
GAYLORD        CLOUDY    76  43  30 S20G26    29.89F
GRAYLING       PTSUNNY   75  43  31 SW9G16    29.91S
HARBOR SPRINGS SUNNY     73  45  37 SW6       29.86S
HOUGHTON LAKE  PTSUNNY   76  44  32 SW14      29.92S
MANISTEE       PTSUNNY   73  45  35 S13G20    29.90F
OSCODA         PTSUNNY   78  42  28 S9        29.90F
PELLSTON       PTSUNNY   78  44  29 SW15G24   29.86S
ROGERS CITY    PTSUNNY   71  49  45 E7        29.89S
TRAVERSE CITY  PTSUNNY   79  45  29 SW12G22   29.86S
$$
MIZ007>008-015-032300-
EASTERN UPPER MICHIGAN

CITY           SKY/WX    TMP DP  RH WIND       PRES   REMARKS
KINROSS        MOSUNNY   73  43  33 SW14G23   29.85F
MACKINAC ISLAN MOSUNNY   68  43  40 W9        29.86S
NEWBERRY       SUNNY     69  44  40 S25G39    29.83S
S. S. MARIE    PTSUNNY   75  45  34 SW15G25   29.83F
MUNISING         N/A     74  48  39 S10G22    29.77R
$$
MIZ004>006-011>014-085-032300-
CENTRAL UPPER MICHIGAN

CITY           SKY/WX    TMP DP  RH WIND       PRES   REMARKS
MANISTIQUE     MOSUNNY   50  39  66 SW13      29.84S
ESCANABA       MOSUNNY   63  43  48 S15G21    29.78S
MENOMINEE      SUNNY     79  52  38 SW22G30   29.78S
SAWYER-GWINN   MOSUNNY   72  52  49 SE16      29.76S
$$
MIZ001>003-009>011-084-032300-
WESTERN UPPER MICHIGAN

CITY           SKY/WX    TMP DP  RH WIND       PRES   REMARKS
IRON MOUNTAIN  PTSUNNY   81  47  30 S16       29.73S
HOUGHTON       CLOUDY    71  50  47 NW14      29.75R
COPPER HARBOR    N/A     59  47  64 N10       29.75R
IRONWOOD       PTSUNNY   72  52  49 N8        29.76R
$$

ABBREVIATIONS USED IN REMARKS
   TC - TEMPERATURE IN CELSIUS
  WCI - WIND CHILL INDEX
   HX - HEAT INDEX
  VSB - VISIBILITY



USA.gov is the U.S. government's official web portal to all federal, state and local government web resources and services.